Waarnemingen

Advertentie
Mijn weer
Vigo Peinador, Spanje (8045): temperatuur & dauwpunt: 14.07.2018 22:00:00 - 20.07.2018 22:00:00 (CEST)Vigo Peinador, Spanje (8045): windsnelheid: 14.07.2018 22:00:00 - 20.07.2018 22:00:00 (CEST)Vigo Peinador, Spanje (8045): windrichting: 14.07.2018 22:00:00 - 20.07.2018 22:00:00 (CEST)Vigo Peinador, Spanje (8045): luchtdruk: 14.07.2018 22:00:00 - 20.07.2018 22:00:00 (CEST)Vigo Peinador, Spanje (8045): zicht: 14.07.2018 22:00:00 - 20.07.2018 22:00:00 (CEST)
Datum & Tijd tt [°C] td [°C] ff [km/u] ff [kn] dd ppp [hPa] vv [km]
20.07.2018 22:00:00 19,7 12,5 28 15 N 1018,6 10
20.07.2018 21:00:00 21,3 12,8 24 13 N 1018,3 10
20.07.2018 20:00:00 22,4 13,3 22 12 N 1017,8 10
20.07.2018 19:00:00 23,9 14,3 24 13 N 1017,5 10
20.07.2018 18:00:00 24,1 14,3 22 12 N 1017,5 10
20.07.2018 17:00:00 24,6 14,0 22 12 N 1017,9 10
20.07.2018 16:00:00 24,1 14,3 22 12 N 1018,2 10
20.07.2018 15:00:00 24,0 15,2 22 12 N 1018,4 10
20.07.2018 14:00:00 23,1 15,1 15 8 N 1018,9 10
20.07.2018 13:00:00 22,9 14,7 13 7 NNO 1019,2 10
20.07.2018 12:00:00 21,3 15,3 11 6 NNO 1019,3 10
20.07.2018 11:00:00 18,9 15,6 15 8 NNO 1019,5 10
20.07.2018 10:00:00 17,5 15,7 11 6 - 1019,6 10
20.07.2018 09:00:00 16,2 15,6 9 5 NO 1019,4 10
20.07.2018 08:00:00 14,9 14,9 9 5 NO 1019,1 9
20.07.2018 07:00:00 14,5 14,5 8 4 NO 1018,8 9
20.07.2018 06:00:00 14,9 14,9 9 5 NO 1018,5 9
20.07.2018 05:00:00 15,1 15,1 9 5 NO 1018,7 10
20.07.2018 04:00:00 15,6 15,4 8 4 ONO 1018,8 10
20.07.2018 03:00:00 16,9 15,4 9 5 NNO 1019,0 10
20.07.2018 02:00:00 17,3 15,8 15 8 NNO 1019,2 10
20.07.2018 01:00:00 17,7 15,9 15 8 NNO 1019,2 10
20.07.2018 00:00:00 18,0 16,2 18 10 N 1019,0 10
19.07.2018 23:00:00 19,1 16,4 15 8 N 1018,7 10
19.07.2018 22:00:00 20,4 15,8 13 7 N 1018,1 10
19.07.2018 21:00:00 21,3 16,3 11 6 N 1017,8 10
19.07.2018 20:00:00 22,1 16,7 13 7 NNW 1017,5 10
19.07.2018 19:00:00 22,4 17,2 16 9 N 1017,4 9
19.07.2018 18:00:00 22,1 18,2 13 7 N 1017,6 9
19.07.2018 17:00:00 21,4 17,5 11 6 N 1017,5 7
19.07.2018 16:00:00 19,6 18,8 9 5 NO 1017,9 5
19.07.2018 15:00:00 18,5 18,4 8 4 W 1018,1 2,0
19.07.2018 14:00:00 18,3 18,3 13 7 W 1018,1 3,0
19.07.2018 13:00:00 18,8 18,8 4 2 ZZW 1017,8 2,5
19.07.2018 12:00:00 18,4 18,4 0 0 N 1017,5 1,2
19.07.2018 11:00:00 17,9 17,9 0 0 N 1017,4 1,2
19.07.2018 10:00:00 17,1 17,1 2 1 - 1017,3 1,0
19.07.2018 09:00:00 17,0 17,0 4 2 - 1016,9 0,3
19.07.2018 08:00:00 16,9 16,9 8 4 W 1016,7 0,3
19.07.2018 07:00:00 16,9 16,9 8 4 W 1016,4 0,5
19.07.2018 06:00:00 17,2 17,2 8 4 W 1016,2 4,0
19.07.2018 05:00:00 17,5 17,5 2 1 - 1016,1 8
19.07.2018 04:00:00 17,6 17,0 2 1 - 1016,3 8
19.07.2018 03:00:00 17,6 17,0 4 2 - 1016,4 7
19.07.2018 02:00:00 17,4 17,1 4 2 - 1016,6 7
19.07.2018 01:00:00 17,5 17,3 0 0 N 1016,9 5
19.07.2018 00:00:00 17,6 17,4 0 0 N 1017,0 5
18.07.2018 23:00:00 17,2 17,2 4 2 - 1016,9 5
18.07.2018 22:00:00 17,4 17,4 9 5 W 1016,8 3,0
18.07.2018 21:00:00 17,9 17,4 13 7 W 1016,5 9
18.07.2018 20:00:00 19,2 17,3 15 8 W 1016,1 10
18.07.2018 19:00:00 20,6 16,3 21 11 W 1016,0 10
18.07.2018 18:00:00 21,8 17,0 21 11 W 1015,9 10
18.07.2018 17:00:00 21,7 17,1 22 12 W 1015,7 10
18.07.2018 16:00:00 21,7 16,9 22 12 W 1015,6 10
18.07.2018 15:00:00 21,5 17,1 28 15 W 1015,4 10
18.07.2018 14:00:00 23,6 17,7 13 7 WZW 1014,8 10
18.07.2018 13:00:00 23,5 17,3 9 5 ZZW 1014,8 10
18.07.2018 12:00:00 23,5 17,5 8 4 ZO 1014,5 10
18.07.2018 11:00:00 21,6 17,5 8 4 - 1014,5 10
18.07.2018 10:00:00 19,3 17,4 0 0 N 1014,4 10
18.07.2018 09:00:00 18,7 17,0 2 1 - 1014,0 10
18.07.2018 08:00:00 15,9 15,9 0 0 N 1013,9 10
18.07.2018 07:00:00 15,8 15,8 4 2 W 1013,7 10
18.07.2018 06:00:00 15,3 15,3 0 0 N 1013,6 10
18.07.2018 05:00:00 15,9 15,9 0 0 N 1013,5 10
18.07.2018 04:00:00 16,6 16,0 2 1 NO 1013,6 10
18.07.2018 03:00:00 17,4 16,2 4 2 - 1013,7 10
18.07.2018 02:00:00 17,6 16,3 4 2 - 1014,1 10
18.07.2018 01:00:00 17,9 16,6 5 3 NNO 1014,5 10
18.07.2018 00:00:00 18,6 16,7 11 6 NNO 1014,5 10
17.07.2018 23:00:00 19,8 17,0 11 6 NNO 1014,4 10
17.07.2018 22:00:00 21,3 17,1 9 5 NNO 1014,2 10
17.07.2018 21:00:00 23,8 16,6 11 6 NNW 1014,1 10
17.07.2018 20:00:00 23,9 16,4 15 8 W 1014,5 10
17.07.2018 19:00:00 24,1 16,1 16 9 W 1014,8 10
17.07.2018 18:00:00 24,7 16,1 18 10 W 1015,4 10
17.07.2018 17:00:00 24,8 16,5 18 10 W 1016,0 10
17.07.2018 16:00:00 24,9 16,8 16 9 W 1016,5 10
17.07.2018 15:00:00 24,8 16,6 16 9 W 1017,0 10
17.07.2018 14:00:00 24,8 15,7 5 3 - 1017,5 10
17.07.2018 13:00:00 24,3 17,1 5 3 NO 1017,9 10
17.07.2018 12:00:00 22,3 15,6 5 3 - 1018,4 10
17.07.2018 11:00:00 21,1 16,2 8 4 NO 1018,7 10
17.07.2018 10:00:00 19,4 16,1 5 3 - 1019,2 10
17.07.2018 09:00:00 18,4 16,9 2 1 - 1019,2 10
17.07.2018 08:00:00 15,3 15,3 2 1 - 1019,7 10
17.07.2018 07:00:00 15,1 14,9 5 3 N 1019,7 10
17.07.2018 06:00:00 15,1 15,1 11 6 N 1019,7 10
17.07.2018 05:00:00 15,3 15,3 11 6 N 1020,0 10
17.07.2018 04:00:00 15,1 15,1 11 6 NNO 1020,3 10
17.07.2018 03:00:00 15,6 15,6 9 5 N 1020,8 10
17.07.2018 02:00:00 15,9 15,9 4 2 - 1021,1 10
17.07.2018 01:00:00 16,2 15,9 5 3 N 1021,3 10
17.07.2018 00:00:00 16,2 15,2 5 3 NW 1021,7 10
16.07.2018 23:00:00 16,9 15,6 9 5 WNW 1021,7 40
16.07.2018 22:00:00 17,8 15,2 13 7 W 1021,4 10
16.07.2018 21:00:00 19,1 15,2 15 8 W 1021,4 10
16.07.2018 20:00:00 19,0 16,4 18 10 W 1021,5 10
16.07.2018 19:00:00 20,8 14,3 21 11 W 1021,1 10
16.07.2018 18:00:00 21,5 13,4 18 10 W 1021,2 10
16.07.2018 17:00:00 21,7 14,9 15 8 W 1021,6 10
16.07.2018 16:00:00 22,3 14,9 16 9 W 1021,6 10
16.07.2018 15:00:00 21,6 14,7 18 10 W 1022,0 10
16.07.2018 14:00:00 21,3 13,5 5 3 - 1022,1 10
16.07.2018 13:00:00 21,3 16,1 5 3 N 1022,1 10
16.07.2018 12:00:00 19,5 14,8 5 3 WZW 1022,4 9
16.07.2018 11:00:00 18,2 16,6 5 3 NO 1022,2 3,0
16.07.2018 10:00:00 17,2 16,8 4 2 - 1022,1 2,5
16.07.2018 09:00:00 15,8 15,8 5 3 O 1022,1 2,0
16.07.2018 08:00:00 15,4 15,4 0 0 N 1021,9 1,5
16.07.2018 07:00:00 14,9 14,9 0 0 N 1021,6 0,3
16.07.2018 06:00:00 15,2 15,2 0 0 N 1021,1 2,0
16.07.2018 05:00:00 15,4 15,4 0 0 N 1020,9 15
16.07.2018 04:00:00 15,5 15,5 8 4 NW 1021,1 10
16.07.2018 03:00:00 15,8 15,8 2 1 - 1021,2 10
16.07.2018 02:00:00 16,1 16,1 0 0 N 1021,2 10
16.07.2018 01:00:00 16,3 16,3 9 5 W 1020,8 10
16.07.2018 00:00:00 16,3 16,1 5 3 W 1020,7 10
15.07.2018 23:00:00 16,5 16,2 8 4 WNW 1020,4 10
15.07.2018 22:00:00 17,3 14,8 5 3 - 1019,8 10
15.07.2018 21:00:00 18,9 14,1 15 8 WNW 1019,2 10
15.07.2018 20:00:00 20,6 15,3 11 6 W 1018,8 10
15.07.2018 19:00:00 21,4 15,7 11 6 W 1018,7 10
15.07.2018 18:00:00 22,1 15,4 9 5 WNW 1018,4 10
15.07.2018 17:00:00 21,8 15,4 11 6 N 1018,6 20
15.07.2018 16:00:00 20,6 15,1 8 4 NW 1018,8 10
15.07.2018 15:00:00 19,8 16,6 4 2 O 1019,0 10
15.07.2018 14:00:00 19,3 16,3 5 3 NO 1018,9 15
15.07.2018 13:00:00 18,5 14,4 2 1 - 1018,9 10
15.07.2018 12:00:00 18,2 17,4 8 4 NO 1018,6 10
15.07.2018 11:00:00 18,0 16,0 0 0 N 1018,5 10
15.07.2018 10:00:00 18,1 16,3 0 0 N 1018,5 10
15.07.2018 09:00:00 17,3 17,0 2 1 - 1018,1 10
15.07.2018 08:00:00 16,8 16,3 4 2 - 1017,8 10
15.07.2018 07:00:00 16,6 16,6 5 3 N 1017,7 10
15.07.2018 06:00:00 17,3 16,4 0 0 N 1017,7 10
15.07.2018 05:00:00 17,2 16,4 4 2 - 1017,6 10
15.07.2018 04:00:00 16,9 16,9 2 1 - 1017,9 10
15.07.2018 03:00:00 17,2 16,9 8 4 WZW 1018,0 10
15.07.2018 02:00:00 17,2 16,7 8 4 WZW 1018,2 12
15.07.2018 01:00:00 17,8 16,8 4 2 WZW 1018,4 10
15.07.2018 00:00:00 17,4 16,6 4 2 - 1018,5 10
14.07.2018 23:00:00 17,8 17,0 4 2 - 1018,0 10
14.07.2018 22:00:00 18,4 17,1 8 4 N 1018,2 10

tt = temperatuur
td = dauwpunt
ff = windsnelheid
dd = windrichting
ppp = luchtdruk
vv = zicht

Weerstations in de omgeving